Precipitable_Water
0.19 0.18 0.21 0.26 0.30 0.32 0.31 0.36 0.32 0.37 0.38 0.44 0.50 0.57 0.63 0.62 0.60 0.59 0.63 0.64 0.67 0.71 0.72 0.75 0.75 0.83 0.91 0.98 1.05 1.12 1.16 1.16 1.16 1.17 1.19 1.16 1.13 1.08 1.04 0.96 0.90 0.91 0.92 0.96
0.17 0.18 0.21 0.21 0.23 0.27 0.31 0.38 0.37 0.37 0.42 0.57 0.58 0.63 0.59 0.56 0.54 0.56 0.60 0.63 0.65 0.69 0.72 0.72 0.74 0.77 0.84 0.92 0.98 1.04 1.08 1.12 1.13 1.13 1.11 1.09 1.06 1.05 1.01 0.97 0.93 0.90 0.89 0.91
0.13 0.21 0.22 0.18 0.21 0.25 0.26 0.42 0.36 0.32 0.45 0.53 0.52 0.51 0.52 0.51 0.52 0.53 0.58 0.62 0.63 0.67 0.69 0.73 0.74 0.76 0.81 0.87 0.94 0.97 1.00 1.04 1.07 1.08 1.08 1.07 1.05 1.02 0.99 0.95 0.93 0.90 0.89 0.90
0.16 0.20 0.12 0.17 0.29 0.35 0.39 0.43 0.48 0.49 0.50 0.50 0.45 0.45 0.47 0.50 0.51 0.53 0.58 0.60 0.62 0.64 0.66 0.70 0.77 0.76 0.80 0.83 0.88 0.91 0.94 0.99 1.00 1.01 1.03 1.02 1.03 0.96 0.96 0.94 0.92 0.93 0.92 0.89
0.17 0.19 0.18 0.20 0.38 0.39 0.37 0.37 0.46 0.43 0.45 0.44 0.43 0.40 0.38 0.47 0.50 0.51 0.55 0.60 0.62 0.65 0.67 0.70 0.74 0.77 0.78 0.80 0.82 0.85 0.87 0.90 0.94 0.95 0.96 0.94 0.94 0.93 0.90 0.89 0.90 0.92 0.93 0.93
0.21 0.17 0.14 0.29 0.41 0.47 0.48 0.29 0.46 0.44 0.40 0.39 0.38 0.26 0.30 0.38 0.46 0.50 0.52 0.57 0.60 0.63 0.64 0.66 0.71 0.75 0.76 0.77 0.76 0.77 0.81 0.85 0.87 0.89 0.88 0.88 0.88 0.89 0.91 0.91 0.90 0.92 0.93 0.93
0.21 0.19 0.25 0.38 0.44 0.47 0.26 0.27 0.43 0.42 0.39 0.37 0.31 0.31 0.34 0.38 0.43 0.49 0.51 0.54 0.60 0.62 0.62 0.64 0.68 0.70 0.70 0.71 0.71 0.73 0.75 0.78 0.81 0.81 0.83 0.85 0.82 0.85 0.84 0.82 0.83 0.84 0.84 0.86
0.24 0.21 0.19 0.40 0.41 0.32 0.39 0.43 0.41 0.38 0.38 0.35 0.36 0.35 0.36 0.37 0.41 0.46 0.49 0.51 0.55 0.56 0.59 0.61 0.65 0.66 0.65 0.66 0.69 0.72 0.71 0.73 0.74 0.75 0.77 0.78 0.78 0.78 0.79 0.78 0.76 0.72 0.74 0.74
0.28 0.26 0.38 0.42 0.39 0.44 0.45 0.40 0.38 0.36 0.38 0.39 0.38 0.38 0.38 0.38 0.41 0.44 0.48 0.50 0.52 0.53 0.56 0.59 0.62 0.64 0.62 0.64 0.66 0.67 0.67 0.66 0.67 0.69 0.71 0.71 0.70 0.72 0.72 0.72 0.70 0.69 0.64 0.61
0.31 0.34 0.36 0.39 0.42 0.42 0.43 0.41 0.40 0.40 0.40 0.39 0.37 0.40 0.40 0.41 0.42 0.44 0.47 0.48 0.50 0.51 0.51 0.53 0.58 0.61 0.61 0.61 0.61 0.61 0.61 0.62 0.63 0.63 0.64 0.65 0.65 0.66 0.66 0.65 0.65 0.63 0.62 0.61
0.31 0.34 0.36 0.37 0.41 0.42 0.42 0.43 0.41 0.42 0.41 0.40 0.40 0.40 0.42 0.42 0.43 0.45 0.46 0.47 0.48 0.49 0.49 0.50 0.54 0.56 0.59 0.59 0.58 0.55 0.54 0.55 0.56 0.57 0.57 0.58 0.58 0.58 0.58 0.58 0.58 0.55 0.55 0.55
0.26 0.34 0.34 0.34 0.39 0.42 0.41 0.42 0.43 0.42 0.40 0.41 0.41 0.40 0.41 0.43 0.44 0.45 0.45 0.47 0.46 0.48 0.48 0.49 0.51 0.53 0.56 0.57 0.56 0.55 0.53 0.52 0.51 0.50 0.49 0.49 0.48 0.48 0.51 0.50 0.50 0.50 0.49 0.48
0.32 0.38 0.38 0.39 0.40 0.43 0.41 0.42 0.43 0.43 0.42 0.40 0.42 0.42 0.42 0.41 0.44 0.45 0.45 0.45 0.45 0.45 0.47 0.48 0.49 0.50 0.52 0.52 0.51 0.49 0.48 0.49 0.49 0.49 0.48 0.44 0.42 0.41 0.40 0.42 0.43 0.44 0.43 0.42
0.40 0.39 0.34 0.37 0.36 0.41 0.41 0.42 0.42 0.42 0.42 0.42 0.41 0.42 0.41 0.40 0.40 0.42 0.42 0.43 0.44 0.44 0.45 0.46 0.46 0.47 0.50 0.50 0.49 0.48 0.47 0.47 0.48 0.47 0.46 0.45 0.43 0.40 0.38 0.34 0.31 0.31 0.32 0.32
0.38 0.40 0.38 0.40 0.40 0.40 0.41 0.39 0.37 0.36 0.37 0.38 0.40 0.39 0.38 0.37 0.36 0.37 0.39 0.40 0.40 0.39 0.40 0.41 0.42 0.43 0.46 0.46 0.45 0.45 0.45 0.43 0.42 0.41 0.39 0.37 0.36 0.34 0.32 0.30 0.28 0.27 0.27 0.27
0.40 0.39 0.38 0.37 0.37 0.38 0.39 0.37 0.34 0.33 0.34 0.35 0.35 0.35 0.35 0.36 0.36 0.35 0.35 0.36 0.34 0.34 0.34 0.35 0.35 0.37 0.39 0.40 0.38 0.36 0.36 0.36 0.36 0.34 0.34 0.33 0.31 0.30 0.27 0.26 0.24 0.23 0.23 0.24
0.37 0.36 0.38 0.37 0.37 0.36 0.35 0.35 0.34 0.33 0.32 0.31 0.32 0.33 0.32 0.32 0.32 0.31 0.31 0.32 0.31 0.31 0.31 0.30 0.29 0.32 0.33 0.33 0.33 0.32 0.31 0.30 0.29 0.29 0.28 0.27 0.26 0.25 0.24 0.22 0.20 0.19 0.20 0.21
0.41 0.40 0.40 0.36 0.34 0.32 0.31 0.31 0.31 0.30 0.30 0.31 0.31 0.31 0.30 0.30 0.29 0.29 0.29 0.30 0.29 0.27 0.27 0.27 0.27 0.26 0.27 0.28 0.28 0.28 0.26 0.25 0.25 0.24 0.24 0.24 0.23 0.23 0.22 0.21 0.19 0.17 0.17 0.17
0.37 0.35 0.34 0.33 0.32 0.30 0.30 0.29 0.29 0.30 0.29 0.29 0.29 0.28 0.28 0.28 0.27 0.27 0.27 0.26 0.23 0.21 0.22 0.23 0.22 0.21 0.22 0.24 0.25 0.25 0.25 0.25 0.24 0.23 0.24 0.23 0.22 0.21 0.20 0.19 0.18 0.17 0.16 0.15
0.31 0.31 0.31 0.31 0.31 0.29 0.28 0.28 0.28 0.28 0.28 0.28 0.27 0.25 0.23 0.22 0.22 0.22 0.22 0.21 0.21 0.20 0.21 0.21 0.21 0.20 0.20 0.23 0.24 0.23 0.23 0.22 0.20 0.20 0.20 0.20 0.18 0.17 0.16 0.17 0.17 0.16 0.15 0.14
0.29 0.29 0.28 0.28 0.28 0.29 0.29 0.28 0.27 0.24 0.22 0.20 0.18 0.17 0.16 0.17 0.18 0.20 0.20 0.18 0.18 0.19 0.19 0.18 0.16 0.16 0.18 0.19 0.19 0.18 0.18 0.18 0.18 0.17 0.17 0.17 0.16 0.16 0.15 0.15 0.14 0.14 0.14 0.13
0.28 0.27 0.28 0.28 0.27 0.25 0.23 0.21 0.18 0.17 0.16 0.16 0.17 0.17 0.17 0.16 0.15 0.14 0.14 0.13 0.13 0.13 0.13 0.12 0.10 0.10 0.13 0.14 0.13 0.13 0.13 0.13 0.13 0.13 0.13 0.13 0.13 0.13 0.13 0.13 0.13 0.13 0.13 0.13
0.28 0.28 0.27 0.23 0.20 0.19 0.19 0.18 0.17 0.17 0.16 0.15 0.13 0.12 0.12 0.13 0.13 0.12 0.11 0.12 0.12 0.12 0.11 0.09 0.08 0.09 0.11 0.12 0.11 0.12 0.12 0.11 0.11 0.12 0.12 0.12 0.12 0.12 0.12 0.11 0.11 0.11 0.11 0.11
0.26 0.23 0.21 0.20 0.21 0.20 0.18 0.18 0.17 0.15 0.14 0.13 0.13 0.12 0.12 0.11 0.13 0.12 0.12 0.11 0.10 0.09 0.10 0.10 0.10 0.08 0.10 0.11 0.11 0.10 0.10 0.11 0.11 0.11 0.11 0.11 0.11 0.11 0.10 0.10 0.09 0.09 0.10 0.10
0.22 0.21 0.21 0.21 0.20 0.19 0.17 0.16 0.15 0.15 0.15 0.14 0.14 0.14 0.13 0.13 0.11 0.12 0.11 0.11 0.10 0.10 0.10 0.10 0.10 0.10 0.10 0.10 0.11 0.10 0.10 0.10 0.10 0.09 0.09 0.09 0.10 0.10 0.10 0.10 0.10 0.10 0.09 0.09
0.22 0.22 0.22 0.22 0.20 0.19 0.18 0.17 0.16 0.17 0.16 0.15 0.15 0.15 0.14 0.14 0.13 0.12 0.11 0.11 0.11 0.11 0.11 0.11 0.11 0.11 0.11 0.10 0.10 0.10 0.10 0.10 0.10 0.10 0.10 0.10 0.09 0.09 0.10 0.10 0.10 0.10 0.09 0.09
0.24 0.22 0.20 0.18 0.17 0.17 0.16 0.14 0.14 0.14 0.14 0.14 0.13 0.15 0.15 0.14 0.13 0.13 0.12 0.12 0.11 0.12 0.12 0.12 0.12 0.12 0.11 0.11 0.10 0.10 0.10 0.10 0.11 0.11 0.10 0.10 0.09 0.08 0.08 0.09 0.10 0.10 0.10 0.09
Wind_Speed
24 26 26 25 25 22 19 22 16 12 12 8 3 4 1 3 5 5 5 6 6 8 10 12 13 14 14 15 15 18 21 21 21 21 19 18 16 14 13 12 11 10 9 8
20 21 26 28 25 23 21 18 19 15 13 6 5 4 2 4 5 5 5 6 7 6 8 12 12 14 14 15 15 17 19 20 21 20 21 20 18 17 16 14 12 12 11 11
13 15 18 22 21 22 18 14 11 13 10 9 7 4 5 6 5 5 4 5 7 6 7 10 13 14 15 15 17 17 18 19 20 20 19 19 20 19 18 17 15 13 13 12
11 12 14 16 10 14 12 5 8 9 7 4 5 4 4 6 6 5 5 6 6 6 7 8 11 14 16 15 17 18 18 18 20 21 22 23 23 21 19 18 17 16 14 14
8 7 10 11 6 6 15 7 3 3 1 5 8 6 5 6 7 6 6 6 6 5 5 3 5 10 14 15 17 18 17 18 18 18 20 21 23 23 22 21 20 18 17 16
5 2 5 6 11 14 13 11 4 6 7 8 8 9 9 8 8 7 7 7 6 5 5 3 3 6 11 13 14 16 16 17 17 17 20 20 21 22 22 22 21 20 19 17
8 6 6 7 10 15 14 11 7 5 5 5 7 7 7 7 7 7 7 6 6 5 4 4 5 4 8 8 12 15 16 16 16 17 17 18 20 20 21 21 21 20 19 17
5 5 1 11 2 8 7 5 5 4 4 4 4 5 5 6 6 6 6 6 5 5 5 5 4 4 4 7 10 11 12 14 14 15 16 17 18 18 20 21 20 20 20 19
5 6 5 6 6 4 3 3 2 2 3 2 2 2 3 4 5 5 5 5 5 4 3 3 3 3 3 3 7 10 10 12 13 13 13 12 14 16 17 19 20 21 22 18
2 6 7 6 6 5 3 2 1 0 1 1 2 3 3 4 5 5 5 4 4 3 4 4 3 3 3 2 2 5 7 8 9 12 11 12 11 12 14 14 15 15 15 15
4 4 4 5 5 4 4 3 2 2 1 1 2 2 3 3 3 3 4 4 5 5 5 4 4 4 3 4 3 3 4 4 5 6 8 7 6 8 9 10 13 13 12 13
2 3 2 2 2 3 4 4 4 3 2 2 3 3 3 3 3 3 3 3 3 4 5 5 4 4 4 4 4 4 4 5 5 5 6 7 7 7 6 7 8 8 10 10
0 1 3 3 2 2 2 2 3 4 4 2 1 1 2 3 3 2 2 2 2 3 3 3 4 5 5 6 6 6 6 7 7 8 9 8 8 8 9 8 9 9 11 12
2 3 2 1 2 0 1 2 3 4 4 3 1 2 2 2 4 4 4 4 4 4 4 5 5 6 7 7 7 8 8 9 9 10 11 11 12 12 12 12 13 13 13 14
2 3 4 3 2 1 1 1 3 3 4 4 3 3 4 4 4 5 6 6 7 7 8 8 9 9 10 10 10 10 11 11 12 12 13 13 14 13 14 15 15 16 17 17
4 5 4 3 1 1 1 2 2 3 4 4 4 4 5 5 6 7 8 8 9 10 10 10 11 11 12 12 13 13 14 14 15 16 16 16 17 17 17 18 19 19 20 20
6 5 5 4 1 1 2 3 4 5 5 6 7 7 7 8 8 9 10 10 11 11 13 13 14 14 15 15 15 16 17 17 18 18 18 19 19 20 20 20 20 21 21 22
5 4 2 2 2 2 3 4 6 7 8 9 9 10 10 11 11 12 13 13 14 15 15 16 17 17 18 18 18 19 19 19 20 21 21 21 21 22 22 22 23 24 24 25
2 2 1 0 2 3 5 6 7 8 10 10 11 11 12 13 14 14 15 15 17 17 18 19 19 20 20 20 21 21 22 21 22 22 23 23 24 24 25 25 25 26 27 28
2 1 1 2 4 5 6 8 8 9 10 10 11 12 13 14 15 16 16 17 18 19 20 21 22 22 23 23 24 24 24 25 25 26 26 26 27 27 28 28 28 29 29 30
0 2 3 4 5 5 6 7 8 9 10 11 12 13 14 16 17 19 19 20 21 22 22 23 23 24 24 24 25 25 26 26 27 27 28 28 28 28 29 29 30 30 31 31
2 2 2 3 4 5 6 7 9 10 12 13 15 17 19 20 21 22 23 23 24 24 25 26 26 26 26 27 27 27 27 28 28 28 28 28 29 29 29 30 31 31 32 32
1 1 2 3 4 6 8 10 12 14 16 18 20 21 23 24 25 25 26 27 27 27 28 28 28 28 28 29 29 29 29 29 30 30 31 31 31 32 32 32 33 33 33 33
1 2 4 6 7 10 12 14 16 18 20 21 23 24 26 27 26 26 26 26 27 27 27 28 28 28 28 29 29 30 30 30 30 31 31 31 31 32 32 32 33 33 33 33
3 5 7 10 13 14 16 18 19 21 24 25 26 27 28 28 27 27 27 27 27 27 26 27 27 27 27 28 29 29 29 29 30 30 30 31 31 31 31 32 32 32 32 32
6 10 12 14 16 17 19 21 23 25 27 28 28 29 28 28 28 28 28 28 28 27 27 27 27 27 27 27 27 28 28 28 28 28 29 29 29 30 30 30 30 31 31 31
10 13 15 17 18 20 22 24 26 27 28 29 30 31 29 29 29 29 27 26 26 25 25 25 25 25 26 26 26 26 26 26 26 27 27 27 28 28 28 28 28 28 28 28
Wind_Direction
268 261 254 250 253 255 263 260 251 266 278 264 243 198 233 314 319 325 317 325 308 261 244 241 239 237 235 229 225 217 211 208 211 214 215 216 219 220 220 219 220 219 215 212
278 267 248 246 247 249 256 258 246 244 256 229 218 218 268 316 315 323 314 314 321 287 254 243 239 235 229 223 219 215 212 212 213 217 220 221 223 224 224 223 221 220 220 218
270 277 243 228 233 239 239 250 246 233 230 238 220 240 281 294 301 313 316 326 329 321 274 252 238 230 225 224 219 217 218 216 218 220 220 222 222 223 226 225 226 226 226 226
266 275 223 207 254 241 174 182 160 125 173 192 214 232 275 287 281 289 298 308 316 319 313 267 239 229 223 223 221 221 224 224 223 227 230 228 225 226 226 226 228 227 232 230
247 248 240 221 229 218 210 197 237 240 289 218 217 228 289 287 281 280 286 295 299 310 324 317 238 228 223 223 223 223 226 230 228 232 226 226 224 226 229 230 230 231 233 230
210 221 203 254 270 253 234 201 241 252 275 274 242 257 262 283 279 274 280 278 290 290 294 309 282 245 229 223 222 221 224 227 230 229 225 223 225 224 226 229 230 230 230 235
213 217 253 322 284 236 200 209 230 258 288 294 261 262 256 269 277 275 273 275 283 274 273 283 295 273 227 219 227 224 223 227 229 228 218 224 221 222 224 226 228 229 227 232
233 258 250 356 103 153 181 191 219 257 263 271 260 248 264 279 284 274 270 270 276 273 269 273 273 268 251 237 230 224 224 223 229 226 231 226 226 224 227 227 226 226 229 231
81 107 73 57 92 108 145 174 191 221 239 235 234 239 256 273 282 285 273 264 264 266 262 281 275 280 260 253 235 224 222 221 226 222 225 234 223 229 230 235 226 232 224 233
97 72 72 61 72 82 86 116 162 149 204 255 272 268 267 276 284 283 281 265 256 260 267 276 290 282 244 232 226 224 214 226 226 223 235 226 222 234 232 235 231 231 230 237
120 88 109 60 56 69 82 86 73 40 1 311 275 277 265 278 284 293 281 264 261 260 259 265 277 279 269 249 229 210 207 212 218 222 219 215 227 238 236 237 229 230 239 239
245 313 134 65 69 77 69 67 52 30 8 335 297 284 265 262 279 289 292 278 269 264 259 260 269 267 264 251 246 241 236 231 227 220 222 228 230 230 235 235 234 239 241 246
196 141 135 132 83 76 75 65 25 19 5 355 315 290 273 246 259 262 277 277 287 276 277 261 264 268 265 264 259 258 256 254 250 246 244 243 243 244 246 250 251 255 256 259
268 198 159 234 211 57 45 67 40 9 353 340 317 292 283 275 255 265 273 276 278 281 276 275 277 279 278 269 264 263 264 265 262 261 260 261 260 259 261 260 262 264 266 266
238 210 186 186 186 214 193 30 2 348 342 340 322 300 297 295 290 284 276 279 277 279 278 276 276 281 275 272 266 265 264 264 264 265 265 265 264 264 265 264 265 267 267 269
236 201 191 178 141 46 357 334 333 332 328 324 322 318 306 295 290 290 289 286 280 281 282 280 280 278 278 273 272 269 269 269 268 268 268 268 267 267 268 269 270 268 270 273
169 158 181 181 202 298 314 314 314 318 319 317 313 304 301 298 295 291 290 288 286 284 282 281 279 277 277 276 275 271 271 271 271 271 271 270 270 270 269 270 271 271 273 274
138 140 145 202 240 281 308 315 313 313 309 306 304 301 300 297 294 291 287 286 288 287 286 284 282 279 277 278 276 274 273 272 272 271 271 271 272 272 271 271 272 273 274 275
124 118 127 279 302 312 310 312 313 311 308 305 302 300 297 295 294 293 293 287 289 287 286 285 282 280 279 280 278 276 275 273 273 273 271 271 272 273 272 272 272 272 274 276
117 86 352 332 322 316 316 312 312 314 313 311 308 306 303 300 297 295 293 291 290 287 287 285 284 282 280 280 279 277 276 275 274 273 273 273 272 273 273 273 273 274 275 276
345 318 312 317 321 325 328 324 323 322 321 317 314 310 306 303 299 297 290 291 290 289 285 285 286 282 281 280 279 278 277 277 276 275 275 275 274 274 275 275 275 276 276 277
304 324 343 344 348 347 343 338 334 329 325 321 316 312 308 304 302 300 297 291 291 289 286 286 285 281 280 280 279 278 277 276 276 275 275 275 275 275 275 276 276 277 277 278
74 30 14 7 351 341 337 332 327 324 321 317 315 313 310 307 304 298 295 294 291 289 286 286 286 282 280 279 279 278 278 277 276 275 275 275 274 274 275 275 276 277 277 277
66 360 340 334 331 329 326 320 319 320 319 317 315 313 311 310 306 301 298 295 294 290 287 286 287 284 281 281 280 279 278 278 277 276 276 276 275 275 275 276 276 276 277 278
329 326 324 321 317 318 319 319 317 316 316 314 312 313 312 310 308 303 299 297 295 293 291 288 287 286 285 283 282 281 280 279 278 278 278 275 276 276 276 276 276 276 277 278
316 317 319 319 321 321 319 318 319 319 316 316 313 313 310 309 307 306 302 298 296 294 292 290 288 287 286 286 284 282 281 280 279 279 278 278 277 277 277 277 277 277 278 278
321 321 321 319 320 320 321 320 319 319 319 319 317 316 310 308 307 306 303 301 298 296 294 293 291 289 288 286 285 286 284 282 280 280 279 279 279 279 278 277 278 277 277 278